Weather History for Worcester, MA

Change the Weather History Date:

Tuesday, July 30, 2013

  Actual Average Record
Temperature  
Mean Temperature 69 °F 70 °F  
Max Temperature 78 °F 79 °F 95 °F (1949)
Min Temperature 60 °F 62 °F 48 °F (1932)
Degree Days  
Heating Degree Days 0 0  
Month to date heating degree days 7 9  
Since 1 June heating degree days 74 92  
Since 1 July heating degree days 7 9  
Cooling Degree Days 4 6  
Month to date cooling degree days 294 171  
Year to date cooling degree days 421 277  
Since 1 June cooling degree days 397 255  
Growing Degree Days 20 (Base 50)    
Moisture  
Dew Point 55 °F    
Average Humidity 60    
Maximum Humidity 78    
Minimum Humidity 42    
Precipitation  
Precipitation 0.00 in 0.14 in 2.32 in (1960)
Month to date precipitation 2.97 4.08  
Year to date precipitation 29.84 27.50  
Sea Level Pressure  
Sea Level Pressure 30.10 in    
Wind  
Wind Speed 11 mph (WNW)    
Max Wind Speed 18 mph    
Max Gust Speed 24 mph    
Visibility 10 miles    
Events      
T = Trace of Precipitation, MM = Missing Value Source: NWS Daily Summary

Daily Weather History Graph

Daily Weather History Graph

Search for Another Location

Airport:

Trip Planner

Search our weather history database for the weather conditions in past years. The results will help you decide how hot, cold, wet, or windy it might be!

Date:

Astronomy

Jul. 30, 2013 Rise Set
Actual Time 5:38 AM EDT 8:08 PM EDT
Civil Twilight 5:06 AM EDT 8:40 PM EDT
Nautical Twilight 4:26 AM EDT 9:20 PM EDT
Astronomical Twilight 3:41 AM EDT 10:04 PM EDT
Moon No Moon Rise 2:25 PM EDT (7/30)
Length of Visible Light 15h 34m
Length of Day
14h 30m
Last Quarter, 41% of the Moon is Illuminated
Jul 30
Last Quarter
Aug 6
New
Aug 14
First Quarter
Aug 20
Full
Aug 28
Last Quarter

Hourly Weather History & Observations

Time (EDT) Temp. Dew Point Humidity Pressure Visibility Wind Dir Wind Speed Gust Speed Precip Events Conditions
12:54 AM 66.0 °F 57.0 °F 73% 30.08 in 10.0 mi NW 10.4 mph - N/A   Clear
1:54 AM 64.0 °F 55.9 °F 75% 30.08 in 10.0 mi WNW 11.5 mph - N/A   Partly Cloudy
2:54 AM 62.1 °F 55.0 °F 78% 30.07 in 10.0 mi WNW 10.4 mph - N/A   Clear
3:54 AM 61.0 °F 54.0 °F 78% 30.08 in 10.0 mi WNW 9.2 mph - N/A   Clear
4:54 AM 61.0 °F 53.1 °F 75% 30.08 in 10.0 mi WNW 13.8 mph - N/A   Clear
5:54 AM 61.0 °F 53.1 °F 75% 30.09 in 10.0 mi WNW 13.8 mph - N/A   Clear
6:54 AM 62.1 °F 52.0 °F 70% 30.10 in 10.0 mi WNW 15.0 mph - N/A   Clear
7:54 AM 64.0 °F 53.1 °F 67% 30.11 in 10.0 mi WNW 15.0 mph - N/A   Clear
8:54 AM 66.9 °F 54.0 °F 63% 30.12 in 10.0 mi WNW 15.0 mph - N/A   Clear
9:54 AM 69.1 °F 55.0 °F 61% 30.12 in 10.0 mi West 12.7 mph - N/A   Clear
10:54 AM 71.1 °F 55.0 °F 57% 30.13 in 10.0 mi WNW 11.5 mph 18.4 mph N/A   Clear
11:54 AM 73.0 °F 54.0 °F 51% 30.12 in 10.0 mi West 13.8 mph - N/A   Clear
12:54 PM 75.0 °F 54.0 °F 48% 30.11 in 10.0 mi WNW 11.5 mph - N/A   Clear
1:54 PM 75.9 °F 55.0 °F 48% 30.11 in 10.0 mi WNW 11.5 mph - N/A   Clear
2:54 PM 75.9 °F 54.0 °F 46% 30.09 in 10.0 mi West 12.7 mph - N/A   Scattered Clouds
3:54 PM 78.1 °F 53.1 °F 42% 30.07 in 10.0 mi NW 10.4 mph - N/A   Partly Cloudy
4:54 PM 73.9 °F 54.0 °F 50% 30.08 in 10.0 mi NW 10.4 mph - N/A   Scattered Clouds
5:54 PM 73.9 °F 53.1 °F 48% 30.08 in 10.0 mi West 9.2 mph - N/A   Scattered Clouds
6:54 PM 73.0 °F 55.0 °F 53% 30.10 in 10.0 mi West 6.9 mph - N/A   Clear
7:54 PM 70.0 °F 55.9 °F 61% 30.12 in 10.0 mi West 5.8 mph - N/A   Scattered Clouds
8:54 PM 68.0 °F 55.9 °F 65% 30.13 in 10.0 mi West 8.1 mph - N/A   Mostly Cloudy
9:54 PM 68.0 °F 55.9 °F 65% 30.13 in 10.0 mi WNW 8.1 mph - N/A   Overcast
10:54 PM 68.0 °F 55.9 °F 65% 30.13 in 10.0 mi WNW 10.4 mph - N/A   Overcast
11:54 PM 64.9 °F 55.9 °F 73% 30.12 in 10.0 mi West 9.2 mph - N/A   Clear